EW5351 Weather Reports


time (UTC)temp
F
wind
direction
speed
knots
gust
knots
rain 1hr
in
rain 24hr
in
rain mn
in
humidity
%
barometer
mb
20260505041336 57 277 2.6 7.0 0.00 0.00 0.00 61 1010.7
20260505040834 57 179 1.7 7.0 0.00 0.00 0.00 61 1010.7
20260505040335 57 259 2.6 7.0 0.00 0.00 0.00 61 1010.8
20260505035834 57 201 3.5 11.3 0.00 0.00 0.00 60 1010.7
20260505035334 57 154 2.6 11.3 0.00 0.00 0.00 60 1010.6
20260505034834 57 183 2.6 8.7 0.00 0.00 0.00 59 1010.6
20260505034334 57 215 2.6 9.6 0.00 0.00 0.00 59 1010.5
20260505033833 58 208 2.6 9.6 0.00 0.00 0.00 59 1010.5
20260505033333 58 242 2.6 8.7 0.00 0.00 0.00 58 1010.5
20260505032834 58 188 2.6 7.0 0.00 0.00 0.00 58 1010.5
20260505032335 58 192 2.6 7.8 0.00 0.00 0.00 57 1010.4
20260505031834 58 98 2.6 7.8 0.00 0.00 0.00 57 1010.4
20260505031333 58 281 3.5 7.8 0.00 0.00 0.00 57 1010.5
20260505030330 58 201 2.6 8.7 0.00 0.00 0.00 56 1010.4
20260505025829 58 217 3.5 7.8 0.00 0.00 0.00 55 1010.5
20260505025330 58 184 3.5 7.8 0.00 0.00 0.00 55 1010.6
20260505024829 59 216 3.5 11.3 0.00 0.00 0.00 54 1010.5
20260505024327 59 218 3.5 11.3 0.00 0.00 0.00 54 1010.5
20260505023328 59 186 2.6 10.4 0.00 0.00 0.00 53 1010.6
20260505022826 59 126 3.5 8.7 0.00 0.00 0.00 52 1010.6
20260505021324 60 148 3.5 10.4 0.00 0.00 0.00 51 1010.6
20260505020823 60 172 3.5 8.7 0.00 0.00 0.00 50 1010.6
20260505020322 60 175 3.5 9.6 0.00 0.00 0.00 50 1010.6
20260505015821 60 245 3.5 9.6 0.00 0.00 0.00 49 1010.5
20260505015321 60 156 3.5 12.2 0.00 0.00 0.00 49 1010.4
20260505014822 60 250 3.5 12.2 0.00 0.00 0.00 49 1010.5
20260505014320 60 252 3.5 7.8 0.00 0.00 0.00 48 1010.5
20260505013821 61 212 3.5 8.7 0.00 0.00 0.00 48 1010.4
20260505012818 61 130 3.5 10.4 0.00 0.00 0.00 47 1010.2
20260505012317 61 152 4.3 12.2 0.00 0.00 0.00 47 1010.2
20260505011817 61 154 4.3 13.9 0.00 0.00 0.00 47 1010.1
20260505010817 62 215 3.5 10.4 0.00 0.00 0.00 45 1009.9
20260505010319 62 245 3.5 9.6 0.00 0.00 0.00 45 1009.9
20260505005817 62 157 4.3 12.2 0.00 0.00 0.00 45 1009.8
20260505005316 62 189 5.2 13.9 0.00 0.00 0.00 44 1009.8
20260505004818 63 177 5.2 15.6 0.00 0.00 0.00 44 1009.7
20260505004317 63 173 3.5 15.6 0.00 0.00 0.00 44 1009.6
20260505003817 63 150 4.3 13.9 0.00 0.00 0.00 44 1009.4
20260505003317 63 152 4.3 13.9 0.00 0.00 0.00 44 1009.3
20260505002817 64 216 4.3 12.2 0.00 0.00 0.00 44 1009.2
20260505001819 64 235 4.3 12.2 0.00 0.00 0.00 43 1008.8
20260505001318 64 227 4.3 11.3 0.00 0.00 0.00 43 1008.7
20260505000817 64 165 3.5 12.2 0.00 0.00 0.00 43 1008.6
20260505000316 65 221 3.5 12.2 0.00 0.00 0.00 43 1008.5
20260504235816 65 206 4.3 12.2 0.00 0.00 0.00 42 1008.4
20260504235316 65 213 4.3 12.2 0.00 0.00 0.00 42 1008.3
20260504234817 65 221 4.3 12.2 0.00 0.00 0.00 42 1008.2
20260504234316 65 217 3.5 12.2 0.00 0.00 0.00 42 1008.1
20260504233818 66 246 4.3 12.2 0.00 0.00 0.00 41 1008.0
20260504233317 66 13 5.2 12.2 0.00 0.00 0.00 41 1008.0
20260504232317 67 25 3.5 12.2 0.00 0.00 0.00 40 1007.8
20260504231817 67 234 4.3 12.2 0.00 0.00 0.00 40 1007.7
20260504231315 67 241 4.3 13.0 0.00 0.00 0.00 39 1007.5
20260504230815 68 236 5.2 17.4 0.00 0.00 0.00 38 1007.4
20260504230314 68 182 4.3 17.4 0.00 0.00 0.00 37 1007.3
20260504225814 68 314 3.5 10.4 0.00 0.00 0.00 37 1007.2
20260504225311 68 257 3.5 10.4 0.00 0.00 0.00 36 1007.1
20260504224810 69 335 3.5 10.4 0.00 0.00 0.00 35 1007.0
20260504224310 69 318 3.5 10.4 0.00 0.00 0.00 35 1007.0
20260504223811 69 162 4.3 10.4 0.00 0.00 0.00 34 1006.8
20260504223308 69 177 4.3 12.2 0.00 0.00 0.00 34 1006.7
20260504222809 70 256 5.2 13.9 0.00 0.00 0.00 33 1006.7
20260504222310 71 263 4.3 13.9 0.00 0.00 0.00 32 1006.6
20260504221807 71 121 2.6 9.6 0.00 0.00 0.00 30 1006.7
20260504220806 71 197 4.3 11.3 0.00 0.00 0.00 29 1006.6
20260504220306 72 9 5.2 17.4 0.00 0.00 0.00 29 1006.6
20260504215806 72 225 4.3 17.4 0.00 0.00 0.00 28 1006.7
20260504215308 72 250 3.5 16.5 0.00 0.00 0.00 28 1006.7
20260504214807 72 218 3.5 16.5 0.00 0.00 0.00 29 1006.6
20260504214306 72 202 2.6 10.4 0.00 0.00 0.00 28 1006.7
20260504213808 72 270 2.6 12.2 0.00 0.00 0.00 28 1006.6
20260504212806 73 184 4.3 16.5 0.00 0.00 0.00 28 1006.7
20260504212306 73 302 3.5 11.3 0.00 0.00 0.00 28 1006.7
20260504211806 73 345 4.3 12.2 0.00 0.00 0.00 28 1006.6
20260504210804 73 272 5.2 14.8 0.00 0.00 0.00 27 1006.6
20260504205805 74 174 2.6 12.2 0.00 0.00 0.00 27 1006.6
20260504205304 73 234 2.6 12.2 0.00 0.00 0.00 27 1006.7
20260504204805 73 266 3.5 13.0 0.00 0.00 0.00 27 1006.6
20260504204305 73 329 5.2 13.0 0.00 0.00 0.00 27 1006.7
20260504203805 73 261 6.1 18.2 0.00 0.00 0.00 27 1006.8
20260504203306 73 218 5.2 18.2 0.00 0.00 0.00 26 1006.7
20260504202802 74 202 4.3 15.6 0.00 0.00 0.00 26 1006.7
20260504202304 74 165 5.2 15.6 0.00 0.00 0.00 25 1006.7
20260504201802 74 90 6.1 16.5 0.00 0.00 0.00 25 1006.7
20260504201302 74 269 5.2 16.5 0.00 0.00 0.00 25 1006.8
20260504200803 74 269 5.2 15.6 0.00 0.00 0.00 25 1007.0
20260504200303 74 330 4.3 15.6 0.00 0.00 0.00 25 1006.8
20260504195803 74 258 5.2 16.5 0.00 0.00 0.00 24 1007.0
20260504195304 74 222 6.1 17.4 0.00 0.00 0.00 24 1007.0
20260504194302 75 148 5.2 19.1 0.00 0.00 0.00 24 1006.8
20260504193302 74 191 6.1 16.5 0.00 0.00 0.00 24 1006.8
20260504192800 74 268 6.1 15.6 0.00 0.00 0.00 23 1006.8
20260504191800 74 242 6.1 16.5 0.00 0.00 0.00 24 1007.1
20260504191259 74 296 5.2 16.5 0.00 0.00 0.00 24 1007.0
20260504190800 73 234 7.0 18.2 0.00 0.00 0.00 24 1007.1
20260504190300 74 325 6.1 18.2 0.00 0.00 0.00 23 1007.1
20260504185800 74 337 5.2 13.9 0.00 0.00 0.00 24 1007.1
20260504185300 74 233 6.1 14.8 0.00 0.00 0.00 23 1007.3
20260504184800 74 188 5.2 14.8 0.00 0.00 0.00 23 1007.1
20260504184301 74 253 6.1 15.6 0.00 0.00 0.00 24 1007.4
20260504183300 75 240 5.2 14.8 0.00 0.00 0.00 23 1007.3
20260504182800 75 248 5.2 14.8 0.00 0.00 0.00 23 1007.4
20260504182304 75 246 5.2 13.9 0.00 0.00 0.00 24 1007.5
20260504181258 76 271 4.3 16.5 0.00 0.00 0.00 23 1007.5
20260504180758 75 339 5.2 16.5 0.00 0.00 0.00 24 1007.5
20260504180258 74 269 5.2 15.6 0.00 0.00 0.00 24 1007.6
20260504175759 74 277 5.2 14.8 0.00 0.00 0.00 24 1007.6
20260504175259 73 236 7.0 18.2 0.00 0.00 0.00 25 1007.6
20260504174758 72 223 7.8 18.2 0.00 0.00 0.00 25 1007.7
20260504173758 73 311 7.0 20.0 0.00 0.00 0.00 24 1007.6
20260504173259 73 234 7.0 20.0 0.00 0.00 0.00 24 1007.7
20260504172758 74 266 5.2 19.1 0.00 0.00 0.00 24 1007.9
20260504172258 74 253 4.3 15.6 0.00 0.00 0.00 24 1007.9
20260504171757 73 289 5.2 17.4 0.00 0.00 0.00 26 1007.8
20260504171257 73 222 5.2 17.4 0.00 0.00 0.00 26 1007.8
20260504170758 72 200 6.1 19.1 0.00 0.00 0.00 26 1007.8
20260504170258 72 265 6.1 19.1 0.00 0.00 0.00 26 1007.9
20260504160259 71 275 7.0 21.7 0.00 0.00 0.00 27 1008.7
20260504150752 71 236 4.3 18.2 0.00 0.00 0.00 28 1009.1
20260504150252 72 260 3.5 9.6 0.00 0.00 0.00 28 1009.2
20260504141252 69 327 2.6 9.6 0.00 0.00 0.00 31 1009.5
20260504140752 68 256 3.5 13.0 0.00 0.00 0.00 32 1009.6
20260504140251 67 258 4.3 13.0 0.00 0.00 0.00 33 1009.7
20260504130749 63 285 4.3 13.9 0.00 0.00 0.00 36 1010.4
20260504130250 63 193 3.5 12.2 0.00 0.00 0.00 36 1010.5
20260504110242 50 278 1.7 3.5 0.00 0.00 0.00 51 1010.9
20260504100236 48 208 0.9 4.3 0.00 0.00 0.00 52 1010.9
20260504081734 47 223 0.9 3.5 0.00 0.00 0.00 54 1010.7
20260504081234 47 223 1.7 4.3 0.00 0.00 0.00 54 1010.7
20260504080232 47 236 0.9 2.6 0.00 0.00 0.00 54 1010.7
20260504060223 44 234 0.9 2.6 0.00 0.00 0.00 58 1010.6
20260504050221 44 227 0.9 3.5 0.00 0.00 0.00 56 1010.6